Time,TemperatureF,DewpointF,PressureIn,WindDirection,WindDirectionDegrees,WindSpeedMPH,WindSpeedGustMPH,Humidity,HourlyPrecipIn,Conditions,Clouds,dailyrainin,SoftwareType,DateUTC
2013-01-23 00:10:00,7.0,-1.6,30.09,South,180,0.0,-999.0,67,-99.99,,,0.00,Acu-Link.com,2013-01-23 05:10:00,
2013-01-23 00:25:00,7.2,-1.4,30.09,ESE,112,1.7,-999.0,67,-99.99,,,0.00,Acu-Link.com,2013-01-23 05:25:00,
2013-01-23 00:41:00,7.2,-1.1,30.09,SE,135,1.7,-999.0,68,-99.99,,,0.00,Acu-Link.com,2013-01-23 05:41:00,
2013-01-23 01:11:00,6.6,-1.1,30.09,WSW,247,0.0,-999.0,70,-99.99,,,0.00,Acu-Link.com,2013-01-23 06:11:00,
2013-01-23 01:43:00,7.0,-0.1,30.09,ESE,112,1.7,-999.0,72,-99.99,,,0.00,Acu-Link.com,2013-01-23 06:43:00,
2013-01-23 01:59:00,6.8,0.0,30.10,ESE,112,0.0,-999.0,73,-99.99,,,0.00,Acu-Link.com,2013-01-23 06:59:00,
2013-01-23 02:28:00,7.0,0.2,30.11,ESE,112,2.7,-999.0,73,-99.99,,,0.00,Acu-Link.com,2013-01-23 07:28:00,
2013-01-23 03:05:00,7.0,0.2,30.11,NNW,337,0.0,-999.0,73,-99.99,,,0.00,Acu-Link.com,2013-01-23 08:05:00,
2013-01-23 07:45:00,6.1,-0.4,30.12,East,90,1.7,-999.0,74,-99.99,,,0.00,Acu-Link.com,2013-01-23 12:45:00,
2013-01-23 08:10:00,6.1,-0.4,30.12,South,180,2.2,-999.0,74,-99.99,,,0.00,Acu-Link.com,2013-01-23 13:10:00,
2013-01-23 08:30:00,6.1,-0.7,30.13,East,90,4.2,-999.0,73,-99.99,,,0.00,Acu-Link.com,2013-01-23 13:30:00,
2013-01-23 09:34:00,10.9,0.8,30.14,South,180,3.7,-999.0,63,-99.99,,,0.00,Acu-Link.com,2013-01-23 14:34:00,
2013-01-23 11:44:00,14.4,1.6,30.11,East,90,5.8,-999.0,56,-99.99,,,0.00,Acu-Link.com,2013-01-23 16:44:00,
2013-01-23 12:00:00,16.9,1.9,30.10,South,180,2.7,-999.0,51,-99.99,,,0.00,Acu-Link.com,2013-01-23 17:00:00,
2013-01-23 12:15:00,16.9,1.9,30.08,SSE,157,2.7,-999.0,51,-99.99,,,0.00,Acu-Link.com,2013-01-23 17:15:00,
2013-01-23 12:34:00,15.6,3.9,30.08,SSE,157,2.7,-999.0,59,-99.99,,,0.00,Acu-Link.com,2013-01-23 17:34:00,
2013-01-23 12:50:00,16.0,4.6,30.07,West,270,1.7,-999.0,60,-99.99,,,0.00,Acu-Link.com,2013-01-23 17:50:00,
2013-01-23 13:15:00,16.2,2.1,30.06,SSE,157,3.2,-999.0,53,-99.99,,,0.00,Acu-Link.com,2013-01-23 18:15:00,
2013-01-23 13:42:00,16.3,2.6,30.06,SSE,157,2.7,-999.0,54,-99.99,,,0.00,Acu-Link.com,2013-01-23 18:42:00,
2013-01-23 13:58:00,17.1,1.3,30.06,WSW,247,3.2,-999.0,49,-99.99,,,0.00,Acu-Link.com,2013-01-23 18:58:00,
2013-01-23 14:23:00,16.3,2.2,30.05,NNE,22,3.7,-999.0,53,-99.99,,,0.00,Acu-Link.com,2013-01-23 19:23:00,
2013-01-23 14:39:00,18.0,2.5,30.05,SE,135,4.2,-999.0,50,-99.99,,,0.00,Acu-Link.com,2013-01-23 19:39:00,
2013-01-23 16:06:00,17.8,1.9,30.05,NW,315,4.2,-999.0,49,-99.99,,,0.00,Acu-Link.com,2013-01-23 21:06:00,
2013-01-23 16:22:00,17.2,0.5,30.05,West,270,2.7,-999.0,47,-99.99,,,0.00,Acu-Link.com,2013-01-23 21:22:00,
2013-01-23 16:38:00,17.1,0.4,30.04,ESE,112,3.2,-999.0,47,-99.99,,,0.00,Acu-Link.com,2013-01-23 21:38:00,
2013-01-23 16:54:00,16.5,0.7,30.05,SSW,202,3.2,-999.0,49,-99.99,,,0.00,Acu-Link.com,2013-01-23 21:54:00,
2013-01-23 17:32:00,14.5,-0.3,30.05,SSW,202,1.7,-999.0,51,-99.99,,,0.00,Acu-Link.com,2013-01-23 22:32:00,
2013-01-23 17:48:00,14.0,0.1,30.05,South,180,1.7,-999.0,53,-99.99,,,0.00,Acu-Link.com,2013-01-23 22:48:00,
2013-01-23 18:12:00,14.2,0.2,30.05,SW,225,0.0,-999.0,53,-99.99,,,0.00,Acu-Link.com,2013-01-23 23:12:00,
2013-01-23 18:39:00,14.2,0.2,30.05,SW,225,0.0,-999.0,53,-99.99,,,0.00,Acu-Link.com,2013-01-23 23:39:00,
2013-01-23 19:03:00,12.7,0.8,30.04,SW,225,0.0,-999.0,58,-99.99,,,0.00,Acu-Link.com,2013-01-24 00:03:00,
2013-01-23 19:23:00,10.0,0.9,30.04,SW,225,0.0,-999.0,66,-99.99,,,0.00,Acu-Link.com,2013-01-24 00:23:00,
2013-01-23 19:38:00,9.9,0.8,30.04,WNW,292,0.0,-999.0,66,-99.99,,,0.00,Acu-Link.com,2013-01-24 00:38:00,
2013-01-23 20:19:00,9.9,0.8,30.03,West,270,0.0,-999.0,66,-99.99,,,0.00,Acu-Link.com,2013-01-24 01:19:00,
2013-01-23 20:34:00,9.5,2.0,30.04,West,270,0.0,-999.0,71,-99.99,,,0.00,Acu-Link.com,2013-01-24 01:34:00,
2013-01-23 20:49:00,9.0,1.8,30.04,West,270,0.0,-999.0,72,-99.99,,,0.00,Acu-Link.com,2013-01-24 01:49:00,